DW7394 Weather Reports


Display with metric or nautical units.
time (UTC)temp
F
wind
direction
speed
MPH
gust
MPH
rain 1hr
in
rain 24hr
in
rain mn
in
humidity
%
barometer
mb
20200405104506 40 337 4.0 8.0 0.00 0.00 0.00 87 1018.8
20200405103013 40 340 3.0 7.0 0.00 0.00 0.00 87 1018.6
20200405101503 40 331 5.0 11.0 0.00 0.00 0.00 86 1018.3
20200405100150 41 333 4.0 8.0 0.00 0.00 0.00 86 1018.4
20200405094652 41 355 6.0 12.0 0.00 0.00 0.00 86 1018.4
20200405093126 41 318 4.0 9.0 0.00 0.00 0.00 86 1018.3
20200405091651 41 320 4.0 11.0 0.00 0.00 0.00 85 1018.3
20200405090105 42 318 4.0 12.0 0.00 0.00 0.00 82 1018.3
20200405084618 42 328 5.0 13.0 0.00 0.00 0.00 81 1018.2
20200405083118 43 333 5.0 10.0 0.00 0.00 0.00 79 1017.9
20200405081636 43 318 2.0 9.0 0.00 0.00 0.00 75 1017.9
20200405080039 44 328 6.0 12.0 0.00 0.00 0.00 72 1017.7
20200405074645 45 309 1.0 7.0 0.00 0.00 0.00 72 1017.7
20200405073043 46 308 1.0 5.0 0.00 0.00 0.00 71 1017.6
20200405071625 46 287 2.0 9.0 0.00 0.00 0.00 70 1017.6
20200405070033 47 293 4.0 8.0 0.00 0.00 0.00 67 1017.5
20200405064521 48 302 2.0 8.0 0.00 0.00 0.00 66 1017.4
20200405063018 49 310 3.0 8.0 0.00 0.00 0.00 65 1017.4
20200405061558 50 311 2.0 8.0 0.00 0.00 0.00 62 1017.4
20200405060032 51 301 2.0 6.0 0.00 0.00 0.00 59 1017.4
20200405054520 52 307 0.0 1.0 0.00 0.00 0.00 58 1017.4
20200405053015 52 310 0.0 0.0 0.00 0.00 0.00 58 1017.4
20200405051506 53 308 1.0 4.0 0.00 0.00 0.00 57 1017.5
20200405050004 53 306 0.0 5.0 0.00 0.00 0.00 57 1017.5
20200405044637 53 340 0.0 5.0 0.00 0.00 0.00 56 1017.3
20200405043212 54 335 0.0 3.0 0.00 0.00 0.00 60 1017.3
20200405041827 54 324 0.0 0.0 0.00 0.00 0.00 61 1017.3
20200405040202 54 309 0.0 4.0 0.00 0.00 0.00 60 1017.4
20200405034700 54 53 0.0 0.0 0.00 0.00 0.00 59 1017.0
20200405033118 54 53 0.0 0.0 0.00 0.00 0.00 60 1016.8
20200405031626 54 32 0.0 0.0 0.00 0.00 0.00 60 1016.8
20200405030055 54 32 0.0 0.0 0.00 0.00 0.00 60 1016.8
20200405024629 54 25 0.0 0.0 0.00 0.00 0.00 60 1016.8
20200405023126 54 25 0.0 0.0 0.00 0.00 0.00 60 1016.8
20200405021613 54 345 0.0 0.0 0.00 0.00 0.00 60 1016.9
20200405020127 54 345 0.0 0.0 0.00 0.00 0.00 59 1017.0
20200405014631 54 345 0.0 0.0 0.00 0.00 0.00 59 1016.9
20200405013132 54 345 0.0 0.0 0.00 0.00 0.00 58 1016.9
20200405011751 54 345 0.0 0.0 0.00 0.00 0.00 57 1016.9
20200405010210 54 345 0.0 0.0 0.00 0.00 0.00 58 1017.0
20200405003151 55 344 0.0 0.0 0.00 0.00 0.00 56 1016.8
20200405001617 55 343 0.0 0.0 0.00 0.00 0.00 56 1016.8
20200405000102 55 344 0.0 0.0 0.00 0.00 0.00 56 1016.7
20200404234640 55 344 0.0 0.0 0.00 0.00 0.00 56 1016.6
20200404233056 55 343 0.0 0.0 0.00 0.00 0.00 56 1016.7
20200404231602 55 342 0.0 0.0 0.00 0.00 0.00 56 1016.7
20200404230127 56 344 0.0 1.0 0.00 0.00 0.00 55 1016.6
20200404224618 56 342 0.0 3.0 0.00 0.00 0.00 54 1016.6
20200404223046 56 350 0.0 1.0 0.00 0.00 0.00 54 1016.5
20200404221544 56 344 0.0 3.0 0.00 0.00 0.00 53 1016.4
20200404220139 57 336 1.0 5.0 0.00 0.00 0.00 53 1016.3
20200404214640 57 11 1.0 6.0 0.00 0.00 0.00 54 1016.3
20200404213202 57 324 4.0 7.0 0.00 0.00 0.00 54 1016.4
20200404211622 57 9 1.0 5.0 0.00 0.00 0.00 55 1016.3
20200404210056 56 346 2.0 10.0 0.00 0.00 0.00 57 1016.5
20200404204548 56 4 4.0 9.0 0.00 0.00 0.00 57 1016.7
20200404203052 56 327 5.0 10.0 0.00 0.00 0.00 56 1016.6
20200404201637 57 343 6.0 10.0 0.00 0.00 0.00 56 1016.6
20200404200105 59 316 3.0 10.0 0.00 0.00 0.00 54 1016.6
20200404194528 61 317 4.0 10.0 0.00 0.00 0.00 53 1016.8
20200404193043 61 342 2.0 7.0 0.00 0.00 0.00 50 1016.9
20200404191526 62 328 2.0 9.0 0.00 0.00 0.00 50 1017.0
20200404190101 62 247 2.0 5.0 0.00 0.00 0.00 44 1017.2
20200404184530 62 228 4.0 8.0 0.00 0.00 0.00 46 1017.3
20200404183028 62 285 1.0 7.0 0.00 0.00 0.00 46 1017.5
20200404181541 61 266 3.0 6.0 0.00 0.00 0.00 46 1017.7
20200404180020 60 328 0.0 6.0 0.00 0.00 0.00 48 1017.9
20200404174513 60 283 2.0 5.0 0.00 0.00 0.00 52 1018.0
20200404173011 59 223 0.0 6.0 0.00 0.00 0.00 53 1018.2
20200404171510 57 298 0.0 5.0 0.00 0.00 0.00 53 1018.4
20200404170005 58 314 0.0 6.0 0.00 0.00 0.00 54 1018.4
20200404163241 56 268 2.0 6.0 0.00 0.00 0.00 57 1018.7
20200404161647 56 202 3.0 6.0 0.00 0.00 0.00 55 1018.7
20200404160057 55 311 0.0 6.0 0.00 0.00 0.00 55 1018.8
20200404154642 56 150 1.0 5.0 0.00 0.00 0.00 60 1018.9
20200404153109 54 195 2.0 7.0 0.00 0.00 0.00 57 1018.9
20200404151557 53 88 0.0 3.0 0.00 0.00 0.00 59 1019.1
20200404150118 52 129 1.0 4.0 0.00 0.00 0.00 61 1019.1
20200404144649 51 139 1.0 4.0 0.00 0.00 0.00 56 1019.1
20200404143113 50 187 1.0 4.0 0.00 0.00 0.00 60 1019.1
20200404141540 49 148 1.0 5.0 0.00 0.00 0.00 59 1019.1
20200404140038 48 139 1.0 4.0 0.00 0.00 0.00 63 1019.0
20200404134536 47 183 0.0 4.0 0.00 0.00 0.00 65 1019.0
20200404133036 46 114 1.0 3.0 0.00 0.00 0.00 66 1019.1
20200404131524 45 109 0.0 3.0 0.00 0.00 0.00 68 1019.1
20200404130014 45 79 0.0 0.0 0.00 0.00 0.00 69 1019.0
20200404124512 43 70 0.0 2.0 0.00 0.00 0.00 72 1019.1
20200404123006 41 268 0.0 0.0 0.00 0.00 0.00 78 1019.0
20200404121613 39 268 0.0 0.0 0.00 0.00 0.00 82 1019.0
20200404120145 35 268 0.0 0.0 0.00 0.00 0.00 85 1018.9
20200404114654 34 268 0.0 0.0 0.00 0.00 0.00 86 1018.9
20200404113129 33 268 0.0 0.0 0.00 0.00 0.00 86 1018.8
20200404111709 33 268 0.0 0.0 0.00 0.00 0.00 86 1018.7